www.pogodaiklimat.ru

Погода и климат >> Архив погоды >> Россия >> Волгоградская область >> Калач-на-Дону


ПОГОДА в Калаче-на-Дону

  • Прогноз погоды в Калаче-на-Дону
  • Монитор погоды в Калаче-на-Дону
  • Климат города

АРХИВ ПОГОДЫ в Калаче-на-Дону

Время (UTC), дата Ветер
(напр.,м/с)
 
Видим.   Явления Облачность Т
(С)
Тd
(С)
f
(%)
Тe
(С)
Тes
(С)
Комфортность P
(гПа)
Po
(гПа)
Тmin
(С)
Tmax
(С)
R
(мм)
R24
(мм)
S
(см)
21 12.10 З 2 10 км {дождь} 9/9 600 м
[Sc]
+10.0 +8.3 89 +8 +8 1017.1 1012.5
00 13.10 З 3 10 км {дождь} 10/10 600 м
[Sc]
+9.7 +8.0 89 +7 +7 1016.9 1012.3
03 13.10 З 1 10 км 10/8 600 м
[Sc Ac As]
+10.1 +8.4 89 +10 +10 1017.0 1012.4 +9.2 1
06 13.10 З 1 20 км 10/6 600 м
[Sc Ac trans]
+11.1 +8.5 84 +11 +11 1017.5 1012.8
09 13.10 ЮЗ 2 20 км 10/10 600 м
[Sc]
+13.3 +9.1 76 +13 +13 1016.5 1011.9
12 13.10 ЮЗ 2 20 км 10/10 600 м
[Sc]
+15.7 +11.2 75 +16 +16 1014.7 1010.1
15 13.10 З 3 10 км в посл. час дождь 10/10 600 м
[Sc]
+14.0 +12.0 88 +13 +13 1014.4 1009.9 +15.8 0.5
18 13.10 З 3 10 км слабый дождь 10/0 300 м
[As op]
+13.6 +12.0 90 +12 +12 1014.1 1009.5
21 13.10 ЮЗ 3 10 км {дождь} 10/10 600 м
[Sc]
+13.5 +10.2 80 +12 +12 1012.9 1008.3
00 14.10 З 2 10 км {дождь} ясно +11.9 +9.7 86 +11 +11 1011.9 1007.3
03 14.10 ЮЗ 2 10 км 10/10 600 м
[Sc]
+12.6 +10.5 87 +12 +12 1010.9 1006.4 +11.8 0.3
06 14.10 СЗ 2 10 км слабый дождь 10/0 300 м
[As op]
+10.9 +9.4 90 +10 +10 1011.3 1006.7 +10.9
09 14.10 З 3 20 км {дождь} 10/10 600 м
[Sc]
+11.7 +8.2 79 +10 +10 1011.4 1006.8
12 14.10 ЮЗ 3 20 км {дождь} 9/9 600 м
[Sc]
+12.7 +7.7 72 +11 +12 1010.9 1006.3
15 14.10 З 2
{10}
10 км 8/8 600 м
[Sc]
+10.7 +4.9 67 +10 +10 1011.8 1007.2 +13.9 0.8
18 14.10 З 4 10 км 3/0
[Ci fib]
+9.2 +4.9 74 +6 +6 1012.0 1007.4
21 14.10 З 3 10 км ясно +9.4 +5.1 74 +7 +7 1011.6 1007.0
00 15.10 С 1 10 км ясно +8.1 +5.7 85 +7 +7 1011.0 1006.4
03 15.10 З 1 10 км 8/6 600 м
[Sc Ac trans]
+8.1 +6.0 87 +7 +7 1011.4 1006.8 +8.0
06 15.10 З 2 20 км 10/10 600 м
[Sc]
+9.3 +6.4 82 +8 +8 1011.0 1006.4 +7.8
09 15.10 СЗ 4 20 км в посл. час дождь 10/10 600 м
[Sc]
+10.4 +6.5 77 +8 +8 1010.9 1006.3
12 15.10 З 4
{10}
20 км {дождь} 10/10 600 м
[Sc]
+9.6 +2.8 63 +7 +7 1009.6 1004.9
15 15.10 З 2
{10}
10 км 10/10 600 м
[Sc]
+8.2 +2.3 66 +7 +7 1007.2 1002.6 +10.6 0.0
18 15.10 ЮЗ 4
{10}
10 км слабый дождь 10/0 300 м
[As op]
+7.3 +5.7 90 +4 +4 1002.3 997.7
21 15.10 З 4 10 км в посл. час дождь 10/0 300 м
[As op]
+9.0 +7.4 90 +6 +6 998.9 994.4
00 16.10 СЗ 4 10 км {дождь} 10/10 600 м
[Sc]
+8.1 +5.8 85 +5 +5 998.8 994.2
03 16.10 С 7-13
{13}
10 км в посл. час дождь 10/10 600 м
[Sc]
+6.3 +2.9 79 +1 +1 1001.1 996.4 +6.3 5
06 16.10 С 7-10
{14}
20 км {дождь} 10/10 600 м
[Sc]
+5.9 +1.7 74 +1 +1 1004.6 1000.0 +5.1
09 16.10 С 4
{13}
20 км 10/10 600 м
[Sc]
+7.5 +3.5 76 +4 +4 1006.8 1002.1
12 16.10 СЗ 6-11
{13}
20 км {дождь} 10/10 600 м
[Sc]
+8.1 +5.0 81 +4 +4 1008.5 1003.9
15 16.10 СЗ 6-12
{12}
10 км {дождь} 10/10 600 м
[Sc]
+7.1 +3.6 78 +3 +3 1010.9 1006.3 +9.2 0.5
18 16.10 СЗ 5
{12}
10 км {дождь} 10/10 600 м
[Sc]
+6.9 +3.3 78 +3 +3 1011.4 1006.7
21 16.10 СЗ 6-14
{14}
10 км 10/10 600 м
[Sc]
+7.0 +2.6 74 +3 +3 1012.1 1007.4
00 17.10 СЗ 4
{14}
10 км 10/10 600 м
[Sc]
+6.7 +2.8 76 +3 +3 1013.0 1008.3
03 17.10 СЗ 5
{10}
10 км 10/10 600 м
[Sc]
+6.3 +2.3 76 +2 +2 1013.9 1009.2 +6.3 0.3
06 17.10 СЗ 5
{10}
20 км 9/5 600 м
[Sc Ac trans]
+7.5 +2.4 70 +4 +4 1015.1 1010.5 +6.2
09 17.10 СЗ 5 20 км 8/8 600 м
[Sc]
+8.6 +2.1 64 +5 +6 1015.4 1010.7
12 17.10 СЗ 4 20 км 9/6 600 м
[Cb cap Ac trans]
+10.9 +2.1 55 +9 +9 1014.7 1010.1
15 17.10 штиль 0 10 км 8/0
[Ac trans]
+9.9 +3.3 63 +9 +9 1015.0 1010.4 +11.4
18 17.10 СЗ 2 10 км 10/10 600 м
[Sc]
+10.4 +6.3 76 +9 +9 1015.7 1011.1
21 17.10 СЗ 3 10 км 10/10 600 м
[Sc]
+10.7 +7.2 79 +9 +9 1016.9 1012.2
00 18.10 СЗ 2 10 км 4/0
[Ac trans]
+8.9 +6.7 86 +7 +7 1019.0 1014.3
03 18.10 СЗ 2 10 км 10/10 600 м
[Sc]
+6.9 +5.9 93 +5 +5 1020.9 1016.2 +6.5
06 18.10 З 1 1000 м дымка 10/10 300 м
[St]
+7.2 +6.3 94 +6 +6 1022.5 1017.8
09 18.10 З 3 20 км 10/4 600 м
[Sc diur, vesp Cs]
+11.0 +7.6 80 +9 +11 1022.3 1017.6
12 18.10 З 3 20 км ясно +12.6 +8.0 74 +11 +13 1020.9 1016.3
15 18.10 ЮЗ 4 10 км 10/0
[Cs]
+11.8 +8.8 82 +10 +10 1019.8 1015.2 +13.3
18 18.10 ЮЗ 2 10 км 10/0
[Cs]
+11.7 +8.4 80 +11 +11 1019.9 1015.3
21 18.10 З 5-11
{13}
10 км 10/0
[Cs]
+12.3 +7.4 72 +10 +10 1018.3 1013.7
00 19.10 В 2
{11}
10 км 8/0
[Ci]
+10.2 +6.7 79 +9 +9 1018.3 1013.7
03 19.10 ЮВ 1 10 км 10/0
[Cs]
+9.8 +6.6 80 +9 +9 1018.1 1013.4 +9.5
06 19.10 СВ 2 20 км 10/0
[Cs]
+12.2 +8.6 79 +11 +13 1018.1 1013.6
09 19.10 З 3 20 км 10/0
[Cs]
+16.4 +9.6 64 +16 +20 1017.3 1012.8
12 19.10 З 3 20 км 10/0
[Cs]
+19.3 +9.7 54 +20 +22 1016.3 1011.9
15 19.10 ЮЗ 2 10 км 8/0
[Ci fib]
+13.8 +10.0 78 +13 +13 1016.6 1012.0 +19.4

 

Местоположение метеостанции Калач-на-Дону (Волгоградская область, Россия): широта 48.68 долгота 43.48 высота над уровнем моря 38 м.

В архиве по умолчанию представлена погода в Калаче-на-Дону за последнюю неделю. Архивные данные за месяц целиком и за предыдущие месяцы, начиная с января 2011 года, Вы можете получить, выбрав интересующий диапазон дат из раскрывающегося списка и нажав кнопку "Ввод!".

Внимание! Время в таблицах - всемирное. Для получения местного времени необходимо прибавить поправку, которая в Калаче-на-Дону равна 3 ч.

Смотрите также архив погоды в соседних городах и на ближайших метеорологических станциях:

Погода в Нижнем Чире (Волгоградская область, Россия) (47 км)
Погода в Волгограде (Волгоградская область, Россия) (66 км)
Погода в Волгограде город (Волгоградская область, Россия) (71 км)
Погода в Иловле (Волгоградская область, Россия) (79 км)
Погода в Серафимовиче (Волгоградская область, Россия) (113 км)
Погода в Котельниково (Волгоградская область, Россия) (119 км)
Погода в Малых Дербетах (Калмыкия, Россия) (123 км)
Погода в Морозовске (Ростовская область, Россия) (124 км)
Погода в Фролове (Волгоградская область, Россия) (125 км)
Погода в Боковской (Ростовская область, Россия) (135 км)

Пояснения к столбцам:

Ветер - указаны скорость ветра в м/с - средняя за 10 мин, порывы в срок и между сроками (в фигурных скобках) и направление, откуда дует ветер: С - северный, СВ - северо-восточный, В - восточный, ЮВ - юго-восточный, Ю - южный, ЮЗ - юго-западный, З - западный, СЗ - северо-западный.
Видимость - горизонтальная дальность видимости в метрах или километрах. При видимости от 1 до 10 км при отсутствии осадков обычно наблюдается дымка, при ухудшении видимости до 1 км и менее - туман. В сухую погоду видимость может ухудшаться дымом, пылью или мглою.
Явления - указаны атмосферные явления, наблюдавшиеся в срок или в последний час перед сроком; фигурными скобками обозначены явления, наблюдавшиеся между сроками (за 1-3 часа до срока); квадратными скобками обозначены град или гололедные отложения с указанием их диаметра в мм.
Облачность - указаны через наклонную черту общая и нижняя облачность в баллах и высота нижней границы облаков в метрах; квадратными скобками обозначены формы облаков: Ci - перистые, Cs - перисто-слоистые, Cc - перисто-кучевые, Ac - высококучевые, As - высокослоистые, Sc - слоисто-кучевые, Ns - слоисто-дождевые, Cu - кучевые, Cb - кучево-дождевые. Подробнее классификацию облаков см. в Атласе облаков (PDF).
T - Температура воздуха - температура, измеренная на высоте 2 м над землей.
Td - Температура точки росы - температура, при понижении до которой содержащийся в воздухе водяной пар достигнет насыщения.
f - Относительная влажность воздуха - влажноcть воздуха, измеренная на высоте 2 м над землей.
Te - Эффективная температура - температура, которую ощущает одетый по сезону человек в тени. Характеристика душности погоды. При расчете учитывается влияние влажности воздуха и скорости ветра на теплоощущения человека.
Tes - Эффективная температура на солнце - температура, которую ощущает человек, с поправкой на солнечный нагрев. Характеристика знойности погоды. Зависит от высоты солнца над горизонтом, облачности и скорости ветра. Ночью, в пасмурную погоду, а также при ветре 12 м/с и более поправка равна нулю.
P - Атмосферное давление - приведенное к уровню моря атмосферное давление.
Po - Атмосферное давление - измеренное на уровне метеостанции атмосферное давление.
Tmin - Минимальная температура - минимум температуры воздуха на высоте 2 м над землей.
Tmax - Максимальная температура - максимум температуры воздуха на высоте 2 м над землей.
R - Количество осадков - Количество выпавших осадков за период времени, мм. При наведении курсора мыши на число - период времени, за который выпало указанное количество осадков.
R24 - Количество осадков - Количество выпавших осадков за 24 часа, мм.
S - Снежный покров - Высота снежного покрова, см. При наведении курсора мыши на число - состояние снежного покрова и степень покрытия местности в баллах.